This is the latest recevied weather packets stored in our database for station/object WX1NWA. If no packets are shown the sender has not sent any weather packets the latest 10 day(s).
| Time | Temp. | Humidity | Pressure | Rain* | Wind** | Luminosity | Snow |
|---|---|---|---|---|---|---|---|
| 1777930130 | 22.22° C | 56% | 1011.5 hPa | 0 mm | - | 401 W/m² | - |
| 1777929825 | 22.22° C | 57% | 1011.6 hPa | 0 mm | - | 416 W/m² | - |
| 1777929524 | 22.22° C | 57% | 1011.6 hPa | 0 mm | - | 374 W/m² | - |
| 1777929219 | 22.22° C | 58% | 1011.5 hPa | 0 mm | - | 407 W/m² | - |
| 1777928917 | 22.22° C | 55% | 1011.5 hPa | 0 mm | - | 478 W/m² | - |
| 1777928614 | 22.78° C | 56% | 1011.4 hPa | 0 mm | - | 464 W/m² | - |
| 1777928311 | 22.22° C | 56% | 1011.5 hPa | 0 mm | - | 524 W/m² | - |
| 1777928009 | 22.78° C | 55% | 1011.6 hPa | 0 mm | - | 196 W/m² | - |
| 1777927707 | 23.33° C | 54% | 1011.4 hPa | 0 mm | - | 580 W/m² | - |
| 1777927405 | 23.33° C | 54% | 1011.4 hPa | 0 mm | - | 582 W/m² | - |
| 1777927104 | 22.78° C | 57% | 1011.8 hPa | 0 mm | - | 593 W/m² | - |
| 1777926801 | 22.78° C | 56% | 1011.8 hPa | 0 mm | - | 601 W/m² | - |
| 1777926497 | 22.78° C | 56% | 1011.9 hPa | 0 mm | - | 606 W/m² | - |
| 1777926194 | 22.22° C | 56% | 1012.2 hPa | 0 mm | - | 611 W/m² | - |
| 1777925890 | 22.22° C | 56% | 1012.1 hPa | 0 mm | - | 590 W/m² | - |
| 1777925588 | 22.22° C | 55% | 1012.3 hPa | 0 mm | - | 609 W/m² | - |
| 1777925285 | 22.22° C | 57% | 1012.1 hPa | 0 mm | - | 623 W/m² | - |
| 1777924981 | 21.67° C | 57% | 1011.9 hPa | 0 mm | - | 624 W/m² | - |
| 1777924677 | 22.78° C | 56% | 1012.1 hPa | 0 mm | - | 376 W/m² | - |
| 1777924373 | 22.78° C | 56% | 1012.1 hPa | 0 mm | - | 678 W/m² | - |
| 1777924071 | 23.33° C | 56% | 1012.1 hPa | 0 mm | - | 648 W/m² | - |
| 1777923767 | 23.33° C | 56% | 1012.3 hPa | 0 mm | - | 658 W/m² | - |
| 1777923463 | 22.78° C | 55% | 1012.3 hPa | 0 mm | - | 645 W/m² | - |
| 1777923161 | 23.33° C | 55% | 1012.2 hPa | 0 mm | - | 633 W/m² | - |
| 1777922859 | 23.89° C | 58% | 1012.5 hPa | 0 mm | - | 648 W/m² | - |
* Rain latest hour (hover to see other rain measurements)
** Current wind speed in m/s (hover to see current wind gust speed)